Location: Unspecified
(0.0000°N, 0.0000°E)
Time: 08:15:11
(UTC+00:00)

Vanguard 2 - Pass Details

Date: 26 October 2021
Orbit: 554 x 2936 km, 32.9° (Epoch: 06 December)

Event Time Altitude Azimuth Distance (km) Brightness Sun altitude
Rises 21:41:26 0° 243° (WSW) 6,472 12.7 -57.1°
Reaches altitude 10° 21:45:33 10° 245° (WSW) 5,612 12.2 -58.0°
Enters shadow 21:57:12 48° 267° (W) 3,537 10.7 -60.6°
Maximum altitude 22:03:11 65° 323° (NW) 3,060 - -62.0°
Drops below altitude 10° 22:18:22 10° 43° (NE) 4,900 - -65.2°
Sets 22:21:44 0° 47° (NE) 5,643 - -66.0°
